Regional Weather Roundup
Issued by NWS Northern Indiana

Home | Current Version | Previous Version | Graphics & Text | Print | Product List | Glossary On
Versions: 1 2 3 4 5 6 7 8 9 10 11 12 13 14 15 16 17 18 19 20 21 22 23 24 25 26 27 28 29 30 31 32 33 34 35 36 37 38 39 40 41 42 43 44 45 46 47 48 49 50
000
ASUS43 KIWX 040500
RWRIWX

KIWX WEATHER ROUNDUP
NATIONAL WEATHER SERVICE NORTHERN INDIANA
1200 AM EST SUN DEC 04 2016

NOTE: "FAIR" INDICATES FEW OR NO CLOUDS BELOW 12,000 FEET WITH NO
SIGNIFICANT WEATHER AND/OR OBSTRUCTIONS TO VISIBILITY.

* THESE STATIONS ARE NOT UNDER NWS QUALITY CONTROL. THEY ALSO MAY NOT
  REPORT WEATHER SUCH AS PRECIPITATION OR FOG.

INZ001>027-040600-
NORTHERN INDIANA

CITY           SKY/WX    TMP DP  RH WIND       PRES   REMARKS
SOUTH BEND     CLOUDY    32  26  78 SW3       30.29S
GOSHEN         CLOUDY    32  26  78 S3        30.28S
ANGOLA*        CLOUDY    34  28  80 CALM      30.27S
FORT WAYNE     CLOUDY    32  27  81 CALM      30.29R
PERU/GRISSOM   CLOUDY    32  27  81 N5        30.26F WCI  27

$$
INZ028>050-040600-
CENTRAL INDIANA

CITY           SKY/WX    TMP DP  RH WIND       PRES   REMARKS
LAFAYETTE      CLOUDY    33  29  85 CALM      30.29R
KOKOMO*        CLOUDY    32  28  85 N5        30.29S WCI  27
MUNCIE*        MOCLDY    32  28  85 CALM      30.28R
INDIANAPOLIS   CLOUDY    33  27  78 CALM      30.28S

$$
MIZ043>046-050>051-056>058-064>065-071>073-077>080-040600-
SOUTHWEST LOWER MICHIGAN

CITY           SKY/WX    TMP DP  RH WIND       PRES   REMARKS
BATTLE CREEK   CLOUDY    34  28  79 SW5       30.27S WCI  30
BENTON HARBOR  CLOUDY    35  25  66 S5        30.27F WCI  31
COLDWATER*     CLOUDY    34  29  83 CALM      30.27S
HILLSDALE*     CLOUDY    32  27  80 CALM      30.25F
HOLLAND        CLOUDY    35  29  78 SE3       30.26F
GRAND RAPIDS   CLOUDY    34  28  79 S6        30.28R WCI  29
KALAMAZOO      CLOUDY    35  23  61 SW5       30.26F WCI  31
STURGIS*       CLOUDY    33  28  82 CALM      30.26S
THREE RIVERS*  CLOUDY    34  29  82 CALM      30.28S

$$
OHZ001>008-015>018-024>025-040600-
NORTHWEST OHIO

CITY           SKY/WX    TMP DP  RH WIND       PRES   REMARKS
DEFIANCE       CLOUDY    35  28  75 CALM      30.29S
FINDLAY        CLOUDY    36  24  62 CALM      30.28S
TOLEDO EXPRESS CLOUDY    34  29  82 SW3       30.29F
TOLEDO METCALF CLOUDY    36  29  75 S5        30.29F
LIMA           CLOUDY    32  27  81 E5        30.27S WCI  27

$$
AND FOR LAKE MICHIGAN COASTAL AND OPEN LAKE BUOY OBSERVATIONS

STATION/POSITION TEMP    WIND        PRES    VSBY  WAVE
                 AIR SEA DIR/SP/G                  HT/PER
                 (F)     (DEG/KT/KT) (MB)    (MI)  (FT/S)
CALUMET HARBOR    32     220/  3/  5 1025.0R
MICHIGAN CITY     33     170/  9/ 11   N/A
BURNS HARBOR      33     190/  8/ 10 1026.1S
SAINT JOSEPH      37     250/ 10/ 13 1025.1F
SOUTH LAKE BUOY   35 48  290/  6/  8 1025.6          1/ 3

$$
&&



USA.gov is the U.S. government's official web portal to all federal, state and local government web resources and services.